Location: Madrid
(40.4000°N, 3.6830°W)
Time: 08:45:46
(UTC+02:00)

ISS - Pass Details

Date: 18 July 2017
Orbit: 400 x 408 km, 51.6° (Epoch: 21 July)

Event Time Altitude Azimuth Distance (km) Brightness Sun altitude
Exits shadow 04:34:15 - 305° (NW) 2,100 -0.2 -21.2°
Reaches altitude 10° 04:36:51 10° 336° (NNW) 1,456 -0.6 -20.9°
Maximum altitude 04:38:04 12° 358° (N) 1,364 -0.4 -20.8°
Drops below altitude 10° 04:39:18 10° 20° (NNE) 1,457 0.1 -20.7°
Sets 04:42:33 0° 56° (NE) 2,319 1.3 -20.3°
